FW8756 Weather Reports


Display with metric or nautical units.
time (UTC)temp
F
wind
direction
speed
MPH
gust
MPH
rain 1hr
in
rain 24hr
in
rain mn
in
humidity
%
barometer
mb
20260510043532 71 120 0.0 1.0 0.00 0.00 0.00 88 1010.7
20260510043027 71 161 0.0 0.0 0.00 0.00 0.00 88 1010.6
20260510042522 71 127 4.0 6.0 0.00 0.00 0.00 88 1010.4
20260510042022 71 130 0.0 1.0 0.00 0.00 0.00 88 1010.6
20260510041520 71 155 2.0 3.0 0.00 0.00 0.00 88 1010.4
20260510041017 72 145 0.0 0.0 0.00 0.00 0.00 88 1010.3
20260510040513 72 149 0.0 1.0 0.00 0.00 0.00 88 1010.2
20260510040009 72 152 0.0 0.0 0.00 0.00 0.00 88 1010.3
20260510035506 72 165 0.0 0.0 0.00 0.00 0.00 88 1010.2
20260510035005 72 154 0.0 1.0 0.00 0.00 0.00 88 1010.4
20260510034504 72 164 0.0 0.0 0.00 0.00 0.00 88 1010.5
20260510034000 72 170 0.0 0.0 0.00 0.00 0.00 88 1010.2
20260510033456 72 141 0.0 0.0 0.00 0.00 0.00 87 1010.2
20260510032954 72 163 0.0 0.0 0.00 0.00 0.00 87 1010.6
20260510032450 72 165 2.0 3.0 0.00 0.00 0.00 87 1010.4
20260510031945 73 147 1.0 1.0 0.00 0.00 0.00 86 1010.7
20260510031441 73 228 2.0 5.0 0.00 0.00 0.00 86 1010.6
20260510030937 73 148 2.0 6.0 0.00 0.00 0.00 86 1010.4
20260510030432 73 128 4.0 6.0 0.00 0.00 0.00 86 1010.1
20260510025930 74 140 0.0 0.0 0.00 0.00 0.00 85 1010.4
20260510025427 74 178 2.0 3.0 0.00 0.00 0.00 84 1010.0
20260510024924 76 167 7.0 9.0 0.00 0.00 0.00 81 1010.1
20260510024420 77 197 4.0 7.0 0.00 0.00 0.00 78 1010.3
20260510023917 78 41 3.0 7.0 0.00 0.00 0.00 77 1009.9
20260510023413 79 167 5.0 6.0 0.00 0.00 0.00 77 1009.6
20260510022911 81 144 7.0 11.0 0.00 0.00 0.00 79 1009.1
20260510022409 80 89 0.0 1.0 0.00 0.00 0.00 80 1008.8
20260510021909 80 105 2.0 3.0 0.00 0.00 0.00 80 1008.7
20260510021407 80 153 0.0 0.0 0.00 0.00 0.00 81 1008.7
20260510020903 81 163 0.0 0.0 0.00 0.00 0.00 81 1008.3
20260510020358 81 144 0.0 0.0 0.00 0.00 0.00 81 1008.3
20260510015854 81 136 0.0 0.0 0.00 0.00 0.00 81 1008.3
20260510015350 81 134 0.0 0.0 0.00 0.00 0.00 81 1008.2
20260510014845 81 143 0.0 0.0 0.00 0.00 0.00 80 1008.3
20260510014343 81 129 0.0 0.0 0.00 0.00 0.00 80 1007.9
20260510013839 82 151 0.0 0.0 0.00 0.00 0.00 80 1008.0
20260510013335 82 149 0.0 0.0 0.00 0.00 0.00 80 1007.8
20260510012830 82 127 0.0 0.0 0.00 0.00 0.00 79 1008.0
20260510012329 82 143 0.0 0.0 0.00 0.00 0.00 79 1007.9
20260510011825 82 144 0.0 0.0 0.00 0.00 0.00 78 1007.6
20260510011320 83 144 0.0 0.0 0.00 0.00 0.00 78 1007.7
20260510010817 83 139 0.0 0.0 0.00 0.00 0.00 78 1007.6
20260510010314 84 148 0.0 0.0 0.00 0.00 0.00 77 1007.6
20260510005811 84 148 0.0 0.0 0.00 0.00 0.00 77 1007.5
20260510005307 84 150 0.0 0.0 0.00 0.00 0.00 76 1007.4
20260510004805 85 152 0.0 0.0 0.00 0.00 0.00 76 1007.0
20260510004302 85 150 0.0 0.0 0.00 0.00 0.00 76 1007.2
20260510003759 85 132 0.0 0.0 0.00 0.00 0.00 75 1007.1
20260510003257 85 155 0.0 0.0 0.00 0.00 0.00 75 1007.3
20260510002755 86 153 0.0 0.0 0.00 0.00 0.00 75 1006.9
20260510002253 86 153 0.0 0.0 0.00 0.00 0.00 73 1007.1
20260510001749 86 160 0.0 0.0 0.00 0.00 0.00 73 1006.8
20260510001248 85 154 0.0 0.0 0.00 0.00 0.00 73 1007.0
20260510000743 85 156 0.0 0.0 0.00 0.00 0.00 74 1006.8
20260510000241 86 151 0.0 0.0 0.00 0.00 0.00 74 1006.6
20260509235737 85 153 0.0 0.0 0.00 0.00 0.00 73 1006.9
20260509235234 85 154 0.0 0.0 0.00 0.00 0.00 73 1006.4
20260509234729 85 153 0.0 0.0 0.00 0.00 0.00 73 1006.8
20260509234227 85 153 0.0 0.0 0.00 0.00 0.00 74 1006.8
20260509233725 85 149 0.0 0.0 0.00 0.00 0.00 74 1006.6
20260509233222 86 152 0.0 0.0 0.00 0.00 0.00 73 1007.0
20260509232718 86 151 0.0 0.0 0.00 0.00 0.00 73 1006.6
20260509232216 86 154 0.0 0.0 0.00 0.00 0.00 71 1006.7
20260509231712 87 143 0.0 0.0 0.00 0.00 0.00 70 1006.9
20260509231209 87 157 0.0 0.0 0.00 0.00 0.00 69 1006.8
20260509230707 88 152 0.0 0.0 0.00 0.00 0.00 68 1006.8
20260509230203 88 157 0.0 0.0 0.00 0.00 0.00 67 1006.7
20260509225659 88 152 0.0 0.0 0.00 0.00 0.00 65 1006.7
20260509225154 89 153 0.0 0.0 0.00 0.00 0.00 65 1006.8
20260509224651 89 153 0.0 0.0 0.00 0.00 0.00 66 1006.5
20260509224148 89 149 0.0 0.0 0.00 0.00 0.00 66 1006.6
20260509223644 89 161 0.0 0.0 0.00 0.00 0.00 64 1006.5
20260509223142 89 4 0.0 0.0 0.00 0.00 0.00 64 1006.6
20260509222639 89 154 0.0 0.0 0.00 0.00 0.00 64 1006.4
20260509222134 89 151 0.0 0.0 0.00 0.00 0.00 65 1006.5
20260509221630 89 146 0.0 0.0 0.00 0.00 0.00 64 1006.3
20260509221126 89 153 0.0 0.0 0.00 0.00 0.00 64 1006.4
20260509220622 89 155 0.0 0.0 0.00 0.00 0.00 64 1006.5
20260509220118 91 265 5.0 6.0 0.00 0.00 0.00 62 1006.8
20260509215614 91 161 0.0 0.0 0.00 0.00 0.00 62 1006.5
20260509215111 90 152 0.0 0.0 0.00 0.00 0.00 63 1006.4
20260509214608 89 178 1.0 1.0 0.00 0.00 0.00 66 1006.6
20260509214105 89 197 3.0 3.0 0.00 0.00 0.00 67 1006.7
20260509213601 90 150 0.0 0.0 0.00 0.00 0.00 67 1006.6
20260509213058 89 272 0.0 1.0 0.00 0.00 0.00 64 1006.5
20260509212555 89 167 0.0 0.0 0.00 0.00 0.00 64 1006.6
20260509212052 89 221 0.0 0.0 0.00 0.00 0.00 63 1006.8
20260509211548 93 262 3.0 3.0 0.00 0.00 0.00 58 1006.9
20260509211044 92 205 0.0 0.0 0.00 0.00 0.00 59 1006.8
20260509210542 92 177 0.0 0.0 0.00 0.00 0.00 61 1006.9
20260509210038 91 275 4.0 5.0 0.00 0.00 0.00 61 1007.0
20260509205538 93 153 1.0 2.0 0.00 0.00 0.00 61 1007.0
20260509205033 93 259 4.0 5.0 0.00 0.00 0.00 61 1007.2
20260509204530 92 251 3.0 5.0 0.00 0.00 0.00 61 1007.2
20260509204026 92 191 0.0 0.0 0.00 0.00 0.00 61 1007.3
20260509203522 91 181 0.0 0.0 0.00 0.00 0.00 62 1007.1
20260509203022 92 164 0.0 1.0 0.00 0.00 0.00 62 1007.5
20260509202521 91 157 0.0 0.0 0.00 0.00 0.00 65 1007.3
20260509202017 91 140 0.0 0.0 0.00 0.00 0.00 63 1007.4
20260509201512 91 151 0.0 0.0 0.00 0.00 0.00 64 1007.5
20260509201010 92 258 3.0 3.0 0.00 0.00 0.00 63 1007.3
20260509200504 92 164 0.0 0.0 0.00 0.00 0.00 64 1007.4
20260509200001 92 157 0.0 0.0 0.00 0.00 0.00 64 1007.5
20260509195456 92 206 3.0 5.0 0.00 0.00 0.00 63 1007.7
20260509194955 92 173 0.0 0.0 0.00 0.00 0.00 62 1007.7
20260509194451 91 166 0.0 0.0 0.00 0.00 0.00 64 1007.8
20260509193948 91 181 2.0 2.0 0.00 0.00 0.00 64 1007.7
20260509193443 89 165 0.0 0.0 0.00 0.00 0.00 68 1007.7
20260509192939 90 286 1.0 2.0 0.00 0.00 0.00 67 1007.6
20260509192436 90 263 3.0 5.0 0.00 0.00 0.00 66 1008.2
20260509191931 90 167 0.0 0.0 0.00 0.00 0.00 66 1007.9
20260509191426 86 198 0.0 0.0 0.00 0.00 0.00 72 1008.1
20260509190923 86 165 0.0 0.0 0.00 0.00 0.00 71 1008.0
20260509190420 87 189 0.0 1.0 0.00 0.00 0.00 73 1008.1
20260509185917 86 158 3.0 3.0 0.00 0.00 0.00 72 1008.2
20260509185415 89 160 0.0 1.0 0.00 0.00 0.00 71 1008.3
20260509184911 90 194 1.0 1.0 0.00 0.00 0.00 67 1008.4
20260509184408 89 150 0.0 0.0 0.00 0.00 0.00 71 1008.3
20260509183905 87 158 0.0 0.0 0.00 0.00 0.00 73 1008.6
20260509183359 89 124 0.0 0.0 0.00 0.00 0.00 70 1008.5
20260509182856 89 160 1.0 2.0 0.00 0.00 0.00 70 1008.7
20260509182353 88 182 2.0 2.0 0.00 0.00 0.00 71 1009.0
20260509181850 89 261 3.0 3.0 0.00 0.00 0.00 70 1008.7
20260509181347 88 199 1.0 3.0 0.00 0.00 0.00 71 1009.0
20260509180845 88 211 2.0 3.0 0.00 0.00 0.00 70 1009.0
20260509180340 87 257 3.0 3.0 0.00 0.00 0.00 72 1009.0
20260509175838 87 164 1.0 2.0 0.00 0.00 0.00 73 1009.2
20260509175334 87 262 3.0 3.0 0.00 0.00 0.00 72 1009.2
20260509174830 87 152 0.0 0.0 0.00 0.00 0.00 73 1009.1
20260509174326 86 156 3.0 5.0 0.00 0.00 0.00 73 1009.1
20260509173821 84 178 0.0 0.0 0.00 0.00 0.00 76 1009.1
20260509173317 85 157 0.0 0.0 0.00 0.00 0.00 75 1009.2
20260509172814 84 151 0.0 0.0 0.00 0.00 0.00 76 1009.2
20260509172311 84 154 0.0 0.0 0.00 0.00 0.00 77 1008.9
20260509171806 83 150 0.0 0.0 0.00 0.00 0.00 78 1008.9
20260509171302 84 168 3.0 3.0 0.00 0.00 0.00 77 1008.8
20260509170759 86 169 1.0 2.0 0.00 0.00 0.00 76 1009.1
20260509170255 86 142 0.0 1.0 0.00 0.00 0.00 75 1009.4
20260509165754 85 154 0.0 0.0 0.00 0.00 0.00 76 1009.4
20260509165249 84 164 2.0 2.0 0.00 0.00 0.00 76 1009.5
20260509164745 84 158 0.0 1.0 0.00 0.00 0.00 76 1009.2
20260509164241 84 150 0.0 1.0 0.00 0.00 0.00 77 1009.3
20260509163738 84 156 1.0 1.0 0.00 0.00 0.00 77 1009.3
20260509163235 84 150 0.0 1.0 0.00 0.00 0.00 77 1009.3
20260509162733 84 168 0.0 0.0 0.00 0.00 0.00 78 1009.5
20260509162227 82 169 0.0 0.0 0.00 0.00 0.00 80 1009.6
20260509161723 81 157 0.0 0.0 0.00 0.00 0.00 81 1009.6
20260509161220 81 198 1.0 1.0 0.00 0.00 0.00 80 1009.6
20260509160715 82 179 1.0 1.0 0.00 0.00 0.00 81 1009.9
20260509160212 81 139 1.0 1.0 0.00 0.00 0.00 82 1009.7
20260509155707 81 159 1.0 1.0 0.00 0.00 0.00 81 1009.8
20260509155203 81 162 1.0 1.0 0.00 0.00 0.00 82 1009.8
20260509154700 81 158 0.0 1.0 0.00 0.00 0.00 83 1009.8
20260509154157 80 157 1.0 2.0 0.00 0.00 0.00 85 1009.6
20260509153654 79 156 1.0 1.0 0.00 0.00 0.00 86 1009.6
20260509153150 78 165 1.0 1.0 0.00 0.00 0.00 87 1009.5
20260509152646 78 169 1.0 2.0 0.00 0.00 0.00 88 1009.4
20260509152143 78 142 1.0 1.0 0.00 0.00 0.00 88 1009.3
20260509151640 77 258 2.0 2.0 0.00 0.00 0.00 89 1009.4
20260509151137 77 157 1.0 1.0 0.00 0.00 0.00 90 1009.4
20260509150635 77 171 2.0 3.0 0.00 0.00 0.00 90 1009.3
20260509150133 77 144 0.0 0.0 0.00 0.00 0.00 91 1009.1
20260509145629 77 167 0.0 1.0 0.00 0.00 0.00 91 1009.4
20260509145124 76 161 0.0 0.0 0.00 0.00 0.00 92 1009.5
20260509144621 76 152 0.0 0.0 0.00 0.00 0.00 92 1009.5
20260509144118 76 195 0.0 0.0 0.00 0.00 0.00 92 1009.3
20260509143615 76 164 1.0 1.0 0.00 0.00 0.00 92 1009.1
20260509143113 76 161 0.0 0.0 0.00 0.00 0.00 93 1009.0
20260509142608 75 158 0.0 0.0 0.00 0.00 0.00 93 1008.9
20260509142104 75 153 0.0 0.0 0.00 0.00 0.00 93 1008.8
20260509141600 75 156 0.0 0.0 0.00 0.00 0.00 94 1008.9
20260509141057 75 136 0.0 0.0 0.00 0.00 0.00 94 1008.8
20260509140554 75 156 0.0 0.0 0.00 0.00 0.00 94 1009.0
20260509140052 75 152 1.0 1.0 0.00 0.00 0.00 94 1009.1
20260509135549 75 153 0.0 1.0 0.00 0.00 0.00 94 1009.3
20260509135047 75 156 0.0 0.0 0.00 0.00 0.00 94 1009.5
20260509134543 75 154 0.0 0.0 0.00 0.00 0.00 94 1009.3
20260509134041 75 150 0.0 0.0 0.00 0.00 0.00 94 1009.3
20260509133538 75 186 0.0 0.0 0.00 0.00 0.00 95 1009.2
20260509133035 74 128 0.0 0.0 0.00 0.00 0.00 95 1009.2
20260509132534 74 156 0.0 0.0 0.00 0.00 0.00 95 1009.2
20260509132032 75 161 0.0 0.0 0.00 0.00 0.00 95 1009.4
20260509131527 74 152 0.0 0.0 0.00 0.00 0.00 95 1009.4
20260509131024 74 149 0.0 0.0 0.00 0.00 0.00 95 1009.6
20260509130520 74 161 0.0 0.0 0.00 0.00 0.00 95 1009.4
20260509130017 74 147 0.0 0.0 0.00 0.00 0.00 95 1009.7
20260509125513 74 152 0.0 0.0 0.00 0.00 0.00 95 1009.5
20260509125010 74 153 0.0 0.0 0.00 0.00 0.00 95 1009.5
20260509124507 74 169 0.0 0.0 0.00 0.00 0.00 95 1009.6
20260509124004 74 158 0.0 0.0 0.00 0.00 0.00 95 1009.5
20260509123502 74 154 0.0 0.0 0.00 0.00 0.00 95 1009.7
20260509122957 74 154 0.0 0.0 0.00 0.00 0.00 95 1009.7
20260509122454 74 150 0.0 0.0 0.00 0.00 0.00 95 1009.5
20260509121951 74 158 0.0 0.0 0.00 0.00 0.00 95 1009.4
20260509121448 74 142 0.0 0.0 0.00 0.00 0.00 95 1009.6
20260509120946 74 176 0.0 0.0 0.00 0.00 0.00 95 1009.1
20260509120444 74 160 0.0 0.0 0.00 0.00 0.00 95 1008.9
20260509115942 74 155 0.0 0.0 0.00 0.00 0.00 95 1009.1
20260509115438 74 155 0.0 0.0 0.00 0.00 0.00 95 1009.2
20260509114936 74 155 0.0 0.0 0.00 0.00 0.00 95 1009.0
20260509114434 74 152 0.0 0.0 0.00 0.00 0.00 95 1009.0
20260509113933 73 155 0.0 0.0 0.00 0.00 0.00 95 1008.8
20260509113430 73 153 0.0 0.0 0.00 0.00 0.00 95 1008.9
20260509112927 73 156 0.0 0.0 0.00 0.00 0.00 95 1008.6
20260509112425 73 166 0.0 0.0 0.00 0.00 0.00 94 1008.5
20260509111921 73 155 0.0 0.0 0.00 0.00 0.00 95 1008.6
20260509111418 73 166 0.0 0.0 0.00 0.00 0.00 94 1008.8
20260509110916 73 160 0.0 0.0 0.00 0.00 0.00 94 1008.8
20260509110411 73 155 0.0 0.0 0.00 0.00 0.00 94 1008.6
20260509105910 73 158 0.0 0.0 0.00 0.00 0.00 94 1008.6
20260509105408 73 159 0.0 0.0 0.00 0.00 0.00 94 1008.4
20260509104905 73 153 0.0 0.0 0.00 0.00 0.00 94 1008.7
20260509104402 73 156 0.0 0.0 0.00 0.00 0.00 94 1008.6
20260509103859 73 156 0.0 0.0 0.00 0.00 0.00 94 1008.8
20260509103356 73 159 0.0 0.0 0.00 0.00 0.00 94 1008.9
20260509102855 73 161 0.0 0.0 0.00 0.00 0.00 94 1009.1
20260509102352 73 164 0.0 0.0 0.00 0.00 0.00 94 1008.9
20260509101847 73 148 0.0 0.0 0.00 0.00 0.00 94 1008.9
20260509101343 74 149 0.0 0.0 0.00 0.00 0.00 94 1008.7
20260509100842 74 151 0.0 0.0 0.00 0.00 0.00 94 1008.9
20260509100338 74 150 0.0 0.0 0.00 0.00 0.00 94 1008.9
20260509095835 74 152 0.0 0.0 0.00 0.00 0.00 94 1008.4
20260509095332 74 152 0.0 0.0 0.00 0.00 0.00 94 1008.5
20260509094830 74 152 0.0 0.0 0.00 0.00 0.00 94 1008.6
20260509094326 73 150 0.0 0.0 0.00 0.00 0.00 94 1008.5
20260509093824 73 157 0.0 0.0 0.00 0.00 0.00 94 1008.6
20260509093321 73 167 0.0 0.0 0.00 0.00 0.00 94 1008.6
20260509092819 74 154 0.0 0.0 0.00 0.00 0.00 94 1008.4
20260509092317 74 154 0.0 0.0 0.00 0.00 0.00 94 1008.6
20260509091815 73 172 0.0 0.0 0.00 0.00 0.00 94 1008.6
20260509091311 74 176 0.0 0.0 0.00 0.00 0.00 94 1008.8
20260509090809 73 169 0.0 0.0 0.00 0.00 0.00 94 1009.0
20260509090305 74 155 0.0 0.0 0.00 0.00 0.00 94 1009.1
20260509085803 74 152 0.0 0.0 0.00 0.00 0.00 94 1009.3
20260509085301 74 145 0.0 0.0 0.00 0.00 0.00 94 1008.9
20260509084757 74 153 0.0 0.0 0.00 0.00 0.00 94 1009.2
20260509084254 74 156 0.0 0.0 0.00 0.00 0.00 94 1008.8
20260509083752 74 153 0.0 0.0 0.00 0.00 0.00 94 1009.0
20260509083248 74 155 0.0 0.0 0.00 0.00 0.00 94 1008.8
20260509082744 73 157 0.0 0.0 0.00 0.00 0.00 94 1009.0
20260509082241 73 153 0.0 0.0 0.00 0.00 0.00 94 1008.8
20260509081738 74 153 0.0 0.0 0.00 0.00 0.00 94 1008.9
20260509081236 73 152 0.0 0.0 0.00 0.00 0.00 94 1009.2
20260509080734 73 155 0.0 0.0 0.00 0.00 0.00 94 1008.9
20260509080231 73 161 0.0 0.0 0.00 0.00 0.00 94 1009.3
20260509075729 73 154 0.0 0.0 0.00 0.00 0.00 94 1009.2
20260509075226 73 150 0.0 0.0 0.00 0.00 0.00 94 1009.3
20260509074723 73 148 0.0 0.0 0.00 0.00 0.00 94 1008.9
20260509074221 73 156 0.0 0.0 0.00 0.00 0.00 94 1009.0
20260509073717 73 135 0.0 0.0 0.00 0.00 0.00 94 1008.7
20260509073213 73 148 0.0 0.0 0.00 0.00 0.00 94 1008.9
20260509072710 73 151 0.0 0.0 0.00 0.00 0.00 94 1009.0
20260509072207 73 139 0.0 0.0 0.00 0.00 0.00 94 1008.9
20260509071703 73 157 0.0 0.0 0.00 0.00 0.00 94 1008.9
20260509071201 73 153 0.0 0.0 0.00 0.00 0.00 94 1008.7
20260509070658 73 159 0.0 0.0 0.00 0.00 0.00 94 1008.8
20260509070154 73 216 0.0 0.0 0.00 0.00 0.00 94 1008.9
20260509065650 73 151 0.0 0.0 0.00 0.00 0.00 94 1008.9
20260509065146 73 158 0.0 0.0 0.00 0.00 0.00 94 1008.9
20260509064643 73 155 0.0 0.0 0.00 0.00 0.00 94 1008.6
20260509064141 73 151 0.0 0.0 0.00 0.00 0.00 94 1008.7
20260509063638 73 143 0.0 1.0 0.00 0.00 0.00 94 1008.7
20260509063134 73 172 0.0 1.0 0.00 0.00 0.00 94 1008.5
20260509062632 73 143 0.0 1.0 0.00 0.00 0.00 94 1008.7
20260509062128 73 145 0.0 0.0 0.00 0.00 0.00 93 1008.7
20260509061625 73 183 3.0 3.0 0.00 0.00 0.00 93 1008.9
20260509061123 73 134 1.0 2.0 0.00 0.00 0.00 93 1009.1
20260509060621 73 221 0.0 0.0 0.00 0.00 0.00 93 1009.3
20260509060116 73 151 0.0 1.0 0.00 0.00 0.00 93 1008.9
20260509055612 73 124 1.0 3.0 0.00 0.00 0.00 93 1009.3
20260509055108 73 154 0.0 0.0 0.00 0.00 0.00 93 1009.3
20260509054605 73 170 0.0 0.0 0.00 0.00 0.00 93 1009.3
20260509054103 73 128 0.0 0.0 0.00 0.00 0.00 93 1009.4
20260509053601 73 151 0.0 0.0 0.00 0.00 0.00 93 1009.3
20260509053057 73 165 2.0 2.0 0.00 0.00 0.00 93 1009.4
20260509052555 73 150 0.0 1.0 0.00 0.00 0.00 93 1009.2
20260509052053 73 153 0.0 0.0 0.00 0.00 0.00 93 1009.1
20260509051551 73 163 0.0 0.0 0.00 0.00 0.00 93 1009.4
20260509051047 73 160 1.0 1.0 0.00 0.00 0.00 93 1009.5
20260509050544 73 145 0.0 0.0 0.00 0.00 0.00 93 1009.5
20260509050041 73 165 2.0 2.0 0.00 0.00 0.00 93 1009.6
20260509045538 73 148 3.0 3.0 0.00 0.00 0.00 93 1009.4
20260509045035 73 158 0.0 0.0 0.00 0.00 0.00 92 1009.5
20260509044533 73 136 0.0 0.0 0.00 0.00 0.00 92 1009.2
20260509044030 73 153 0.0 0.0 0.00 0.00 0.00 92 1009.3